User: anonymous
Location: Rancho Del Sol Observatory
(38.7214°N, 120.6350°W)
Time: 08:16:49
(UTC-07:00)
Language:

Cosmos 2221 Rocket - Orbit

View from above orbital plane
View from above orbital plane
View from above satellite
View from above satellite

Ground track
Ground track

The orbit data is extracted from the following two-line orbital elements,

1 22237U 92080B   14205.10834994  .00000127  00000-0  14421-4 0  3861
2 22237 082.5116 022.6787 0021185 070.6433 070.2854 14.77873014166981
Epoch (UTC): 24 July 2014 02:36:01
Eccentricity: 0.0021185
inclination: 82.5116°
perigee height: 621 km
apogee height: 651 km
right ascension of ascending node: 22.6787°
argument of perigee: 70.6433°
revolutions per day: 14.77873014
mean anomaly at epoch: 70.2854°
orbit number at epoch: 16698

The dashed part of the orbit path shows where the satellite is in the earth's shadow,  

DLR